Wind_Speed
70 68 69 68 67 67 64 62 64 67 68 66 66 65 64 63 61 59 59 60 61 61 62 62 61 61 59 57 56 57 57 55 56 56 57 56 55 55 54 53 51 49 50 54 55 55 57 58 58 60 63 63 64 67 67 68 70 73 76 77 74 71 68 67 73 80 81 80 80 79 79 80 80 81 83 84 85 85 84 82 77 74 71 66 62 57 55
72 72 72 70 69 68 66 64 66 69 69 66 66 66 66 65 62 60 61 62 63 64 65 63 61 61 60 58 58 59 58 58 58 58 58 58 58 57 55 55 54 52 53 55 54 55 58 58 58 62 64 64 66 69 72 72 72 76 81 80 77 75 71 68 75 84 85 82 81 81 82 82 82 83 85 85 86 86 85 84 80 76 72 67 62 58 56
75 73 72 70 70 71 70 68 69 70 69 66 65 68 70 68 64 62 65 67 67 67 66 63 62 62 60 59 61 61 59 59 60 59 59 59 59 59 57 57 57 56 55 55 55 58 60 59 59 64 66 66 67 70 74 74 74 80 83 81 79 76 68 67 77 86 85 82 82 83 84 83 84 85 86 87 88 87 86 85 81 77 72 68 63 58 56
77 73 72 73 75 74 73 72 72 70 69 68 68 71 72 71 67 67 70 71 69 68 66 64 64 64 61 61 63 62 60 61 61 60 60 60 60 61 61 60 59 58 58 57 57 59 62 62 63 67 69 68 68 72 76 75 77 82 82 81 80 74 68 72 83 87 85 83 83 83 84 85 85 86 87 89 90 88 87 85 81 76 73 70 64 58 57
78 76 76 78 78 77 75 75 73 71 71 72 72 72 73 73 72 72 72 72 71 70 68 66 66 65 64 64 64 63 63 62 62 62 62 62 61 62 63 63 62 61 61 61 60 60 63 66 67 70 72 70 72 76 76 75 79 81 80 80 77 73 74 81 85 86 85 85 84 83 85 85 86 87 89 90 90 88 86 84 80 77 73 69 64 61 61
82 81 80 80 81 80 78 77 76 75 76 76 74 73 74 75 75 73 72 72 74 73 70 68 67 67 67 66 65 65 66 64 63 63 64 64 64 64 65 65 66 65 64 64 64 64 66 69 72 72 73 73 76 77 77 78 77 74 76 79 76 77 83 85 85 87 87 86 85 84 85 86 86 88 90 91 90 88 86 84 80 77 72 67 65 65 64
86 84 84 84 85 83 79 78 80 81 79 76 74 75 76 76 75 73 73 74 76 75 72 70 70 70 69 67 67 69 68 64 63 65 66 66 67 66 67 68 68 67 66 67 68 68 69 71 71 71 75 78 78 77 76 73 68 69 76 80 80 83 87 85 86 89 87 86 87 86 86 86 87 89 91 91 89 87 86 84 80 77 72 67 65 63 61
88 87 88 89 88 85 81 81 83 83 80 77 76 76 77 78 77 75 75 75 76 77 75 73 74 73 69 68 71 72 69 64 65 68 69 68 68 68 69 70 69 68 68 68 70 71 71 71 72 74 79 78 75 75 73 67 66 75 82 83 84 89 89 88 90 89 86 87 87 87 87 87 88 90 90 89 88 88 86 83 79 75 71 67 63 62 61
91 90 90 90 89 86 84 84 84 83 81 80 79 78 79 81 80 78 77 76 77 79 77 76 76 73 69 71 75 73 69 66 67 70 71 70 70 70 70 71 71 72 71 70 71 73 72 73 75 76 76 74 75 78 77 74 76 82 84 86 90 91 90 91 91 87 85 85 86 88 89 89 90 91 89 88 89 89 86 82 78 74 71 68 65 65 64
91 90 90 91 90 88 86 86 86 85 83 81 80 79 81 81 80 78 77 75 77 78 78 76 76 73 72 75 75 71 70 71 70 70 72 72 72 72 71 72 73 73 73 72 71 70 71 74 76 76 76 77 78 79 81 81 82 84 87 90 91 90 91 90 87 85 84 83 86 91 92 93 94 93 90 89 88 87 85 80 76 73 71 70 69 69 69
90 89 91 92 91 88 85 85 88 87 84 83 83 82 82 82 79 78 79 79 80 79 77 77 75 74 75 78 75 72 73 74 71 70 72 73 73 73 73 73 74 74 75 74 72 72 74 78 79 77 76 77 78 81 85 86 86 89 91 90 89 90 90 87 85 85 84 84 89 94 96 97 97 95 93 91 89 86 83 79 76 74 73 73 73 74 74
90 89 90 90 89 87 83 84 88 88 85 84 85 84 84 84 82 82 84 85 85 82 80 79 78 78 78 79 78 75 75 75 73 72 74 75 73 73 74 74 74 75 76 77 77 78 80 82 77 69 68 76 83 86 87 87 89 90 88 86 88 89 86 85 86 86 85 88 93 96 97 98 97 95 95 93 90 87 82 78 76 75 75 76 76 76 77
91 91 92 90 89 86 83 83 87 89 87 87 87 85 84 85 85 86 86 86 85 84 83 82 82 81 80 80 81 79 77 78 76 73 75 75 73 74 75 75 76 77 77 80 82 79 79 78 73 67 72 83 89 88 88 89 90 88 85 86 88 87 85 86 87 85 87 93 97 98 98 99 97 97 97 94 91 87 81 78 77 76 76 77 78 78 79
89 89 89 89 89 89 87 86 89 91 91 90 89 87 85 86 87 88 87 86 86 84 84 84 84 84 81 80 81 80 78 79 77 73 73 76 76 75 75 76 77 74 71 74 77 75 74 75 74 74 80 86 88 89 90 89 86 85 86 88 89 88 87 86 86 87 92 98 100 99 98 98 98 98 98 95 91 86 82 81 81 80 80 80 81 82 82
89 88 87 87 88 89 90 90 92 94 93 90 88 87 87 88 88 88 87 86 86 83 81 82 84 84 80 78 79 79 77 78 78 74 73 76 78 77 76 77 77 73 70 72 75 76 79 82 83 84 86 86 87 88 89 88 86 87 88 89 91 91 89 89 92 97 100 102 101 99 97 97 98 98 97 94 90 85 82 82 83 83 84 84 85 85 85
83 84 85 87 89 89 88 88 90 90 89 87 86 86 87 88 88 87 86 86 85 83 82 83 85 84 79 77 79 80 80 81 81 78 75 76 78 77 77 78 78 77 77 79 80 82 85 87 86 86 87 86 85 86 88 88 87 87 87 89 91 90 90 96 103 105 104 102 100 99 98 97 97 97 95 91 88 84 83 83 84 85 86 86 86 87 88
78 78 80 83 86 87 88 89 91 91 89 86 84 85 88 89 89 88 89 89 88 86 85 86 85 83 80 79 82 84 83 83 83 81 78 78 79 79 80 80 80 80 81 82 83 85 86 84 84 86 86 84 83 83 84 83 84 87 91 91 91 92 98 106 109 106 102 100 99 98 99 98 97 95 93 89 87 85 85 86 86 86 87 88 88 88 89
76 78 80 82 83 84 86 86 86 87 87 84 83 85 88 90 90 90 89 87 86 86 86 86 87 86 85 83 84 85 84 81 81 81 80 81 82 82 82 82 83 84 85 86 87 87 84 82 84 85 86 85 84 83 83 85 89 94 96 94 94 99 105 110 108 104 100 99 99 99 99 98 97 94 91 89 87 86 87 88 88 88 89 90 90 90 90
75 75 76 79 81 83 84 83 82 83 84 83 83 86 89 90 90 89 86 83 83 86 87 87 87 87 86 84 84 86 85 83 83 84 83 83 84 84 83 82 83 85 87 89 89 86 82 82 84 85 86 87 87 87 88 91 94 96 96 96 98 103 107 108 105 102 100 100 100 99 98 97 95 91 90 89 88 87 88 89 90 90 91 92 93 91 89
76 76 77 77 78 80 81 80 81 82 82 82 83 85 87 88 87 87 86 85 85 86 86 85 86 85 84 84 86 87 87 86 85 85 83 82 82 82 80 80 81 83 86 87 84 78 75 79 84 86 86 87 89 91 93 94 96 98 100 100 101 104 106 106 103 102 102 102 101 100 98 95 92 91 90 90 90 90 91 91 92 93 93 93 92 88 84
75 78 78 77 78 81 81 80 80 82 81 82 83 84 85 86 86 86 87 86 86 86 85 85 85 85 84 84 86 87 88 87 85 83 82 82 82 82 80 79 81 83 83 83 80 75 74 78 84 88 90 91 94 97 99 98 99 101 101 102 103 105 105 104 102 102 102 101 101 100 97 94 92 91 92 92 92 92 93 94 94 94 92 90 86 83 82
80 82 81 79 81 83 83 81 83 85 85 85 86 87 87 88 88 87 86 85 86 87 88 88 87 86 84 83 83 84 84 83 83 83 82 83 85 84 83 83 84 85 85 83 81 79 79 82 86 90 94 97 100 102 103 102 102 101 101 102 104 104 102 102 101 100 100 100 99 97 95 94 92 92 93 94 94 94 95 95 93 92 90 87 85 83 83
84 84 83 83 84 87 86 86 87 89 91 92 92 91 91 92 92 91 90 89 89 88 89 89 88 88 86 83 83 84 82 82 83 83 83 85 86 86 84 84 85 85 84 83 81 82 86 89 92 95 98 101 103 103 103 103 103 103 104 105 105 103 102 102 101 99 98 97 96 95 94 94 93 93 95 95 94 94 95 93 92 90 88 86 84 83 81
82 83 85 87 89 90 91 90 91 91 92 93 92 90 90 90 91 90 90 90 89 88 88 87 86 86 86 84 83 84 83 82 83 84 85 86 87 87 86 86 86 86 86 86 87 90 93 95 96 97 98 99 100 101 102 102 103 105 106 106 105 104 103 102 99 97 96 95 94 94 94 95 95 96 97 96 95 95 94 92 90 88 85 83 82 80 77
79 80 83 88 91 94 95 94 94 94 93 90 87 87 88 88 88 87 86 86 86 87 86 85 83 84 84 82 80 80 80 80 80 82 85 87 88 89 88 87 86 87 88 90 92 94 95 95 96 97 98 98 100 102 103 103 104 105 105 104 103 103 101 99 97 95 95 95 95 95 95 97 98 99 99 98 96 94 92 90 88 86 83 80 79 76 73
81 82 83 85 89 92 93 91 90 91 90 88 87 90 92 91 89 87 85 85 86 86 85 84 83 84 84 83 81 80 80 80 81 84 86 87 88 89 88 87 88 90 91 92 94 96 96 96 98 99 101 102 102 103 103 102 103 103 102 101 100 99 97 96 96 95 95 95 95 95 97 98 99 101 101 99 96 93 92 90 87 84 80 77 74 72 69
81 85 85 85 87 89 90 89 89 89 89 88 87 89 90 90 88 87 87 86 86 86 85 83 82 83 85 84 83 82 82 81 83 86 87 88 90 90 89 89 93 95 96 96 97 97 98 98 100 102 103 104 104 103 102 101 101 100 99 97 96 96 95 96 96 95 96 96 95 96 98 99 100 101 99 96 95 94 92 89 85 81 77 74 71 68 65
80 83 82 81 82 84 87 89 90 91 91 89 87 86 86 87 87 87 87 86 85 85 85 83 82 84 86 85 85 85 85 85 86 88 89 91 94 94 93 93 97 99 98 98 99 99 100 100 102 103 105 105 104 102 99 96 95 95 95 95 94 94 95 96 96 96 97 97 97 97 98 99 100 99 97 95 94 93 89 85 81 78 75 71 68 65 62
77 78 76 77 79 81 82 84 86 86 87 87 86 85 85 85 85 85 85 85 85 86 86 86 86 86 88 88 87 87 87 87 88 90 91 91 94 95 95 96 99 101 100 100 101 101 102 103 104 104 104 104 101 97 93 92 92 93 93 93 93 95 97 98 99 98 97 97 98 98 98 97 97 96 96 95 93 90 87 83 78 74 71 68 65 63 60
70 71 73 76 77 78 79 80 81 81 83 83 83 83 82 82 81 82 82 82 83 83 85 87 87 86 87 88 87 86 86 88 89 91 91 91 93 96 96 98 100 101 101 101 102 103 103 103 102 100 100 99 96 92 91 92 92 92 92 94 96 99 101 101 100 99 98 98 98 98 98 97 97 97 96 94 90 86 83 79 74 70 67 65 63 60 57
65 68 71 73 74 76 77 78 78 79 80 81 81 81 80 80 80 79 80 80 81 81 82 85 86 86 86 87 87 87 88 89 90 90 91 92 93 95 96 98 100 101 101 101 102 101 99 97 95 94 93 93 93 92 91 92 92 93 95 98 101 102 102 101 100 99 98 97 96 95 96 98 98 97 95 92 87 83 78 75 71 67 65 62 59 56 53
67 69 70 71 72 73 74 75 75 77 78 79 79 80 80 80 80 80 81 81 82 82 83 85 87 87 88 89 88 88 88 89 90 90 91 92 93 96 98 100 101 101 100 100 98 94 90 88 88 89 91 93 95 95 94 95 97 98 100 101 101 100 100 100 100 98 95 94 94 95 96 96 96 94 91 86 82 78 74 70 67 64 61 58 55 52 50
69 71 71 72 72 73 73 74 74 75 76 77 78 79 79 80 81 81 82 83 84 84 85 87 89 89 89 90 90 89 89 90 91 91 91 92 94 96 98 98 97 95 92 90 87 85 85 86 89 91 94 97 99 99 100 101 102 102 101 101 101 100 100 99 98 96 94 94 96 96 95 94 92 88 84 80 77 74 70 66 63 60 57 54 51 48 47
70 70 71 72 73 74 75 75 76 77 78 79 80 80 81 82 83 84 85 86 86 87 88 89 91 91 92 92 92 91 91 91 91 90 89 89 90 92 93 91 87 82 80 81 84 86 89 91 93 95 98 100 101 101 102 103 104 104 103 102 101 100 99 97 96 96 96 97 96 94 91 89 85 81 77 75 72 68 64 61 58 55 53 50 48 45 43
68 69 70 71 72 73 75 76 77 79 80 80 82 83 84 84 85 86 87 88 88 88 90 91 92 92 91 91 90 89 89 88 87 85 83 83 85 88 90 89 85 82 84 88 91 93 93 94 97 100 102 102 102 103 104 105 105 104 103 102 100 98 98 98 97 97 96 94 92 89 85 81 77 74 71 69 66 63 59 56 53 51 49 48 46 42 41
64 66 67 68 70 71 72 73 75 76 78 79 81 82 82 83 83 84 85 85 85 85 85 86 87 87 86 85 85 84 83 83 82 81 79 79 82 87 89 90 90 90 93 95 96 96 96 98 101 103 104 104 104 105 106 106 104 102 101 100 100 99 99 98 96 93 91 88 85 81 78 74 71 68 66 63 60 58 55 52 49 47 46 47 46 42 40
65 65 66 67 68 68 69 69 70 71 72 73 75 75 76 77 78 78 79 79 79 80 80 82 83 85 84 83 83 83 83 84 84 83 80 80 85 91 93 93 94 96 97 98 99 99 99 101 103 105 105 105 105 105 105 104 102 100 99 99 98 97 95 92 88 85 82 79 76 74 71 69 66 64 61 58 56 54 51 49 48 45 45 45 46 44 41
67 68 69 69 69 70 70 71 71 72 72 73 74 74 75 76 78 79 79 80 80 81 82 83 86 87 87 87 87 87 87 88 89 87 84 84 90 95 97 97 97 98 99 100 101 101 101 102 104 105 105 104 103 103 103 101 99 98 97 95 93 90 86 82 78 75 73 71 69 68 67 64 62 60 58 56 53 51 49 48 47 47 46 46 45 44 43
71 72 73 73 73 74 74 74 75 75 76 77 77 78 79 80 81 82 83 84 84 85 86 88 90 92 92 92 91 91 91 92 92 91 90 91 95 98 99 99 100 100 101 102 102 102 103 103 102 101 100 100 100 100 99 97 95 93 90 87 84 79 75 72 70 68 66 65 64 63 62 61 59 57 56 53 51 50 50 49 48 47 46 45 44 43 42
74 75 76 77 78 78 78 79 79 80 80 81 82 82 83 84 85 86 87 88 89 89 91 93 94 96 97 97 96 95 94 94 94 94 94 95 97 99 99 100 100 101 101 101 101 100 99 99 97 96 97 97 96 95 93 91 87 84 80 77 73 69 67 65 64 63 62 61 60 60 59 57 56 55 54 52 50 50 51 50 49 46 44 43 42 41 40
78 78 79 80 81 82 82 83 83 83 85 86 86 86 87 87 87 87 88 90 91 94 96 97 98 98 98 98 97 96 95 94 94 94 94 95 96 96 97 97 98 98 98 97 96 95 94 94 94 93 92 91 88 85 83 80 77 73 70 67 64 63 61 60 59 58 57 57 57 57 56 54 53 53 52 51 50 50 50 49 47 45 42 40 39 38 37
81 82 83 83 84 85 86 87 87 87 88 89 89 89 88 87 85 87 90 94 95 96 98 100 100 99 98 97 96 95 94 93 92 92 92 93 94 94 94 94 95 94 93 92 91 90 90 90 88 86 82 79 77 74 71 69 67 64 61 60 59 58 57 56 55 54 54 53 53 54 54 52 51 51 51 50 50 48 46 44 42 41 40 37 35 34 33
85 85 86 86 87 87 88 88 88 88 89 89 88 86 85 83 81 84 90 94 94 92 92 92 90 88 88 88 88 89 89 89 90 90 91 91 91 90 90 90 89 88 87 86 85 84 83 81 78 74 71 68 67 65 62 60 59 58 57 56 55 54 54 53 51 50 51 51 51 51 52 52 50 50 49 49 47 44 42 40 38 37 35 33 31 29 28
87 87 87 87 87 87 87 87 86 85 84 83 81 79 77 74 74 78 84 88 89 89 88 87 83 80 80 81 82 83 84 85 85 86 86 86 84 83 82 81 80 79 78 77 75 73 71 69 67 64 62 61 60 59 57 56 55 55 54 53 51 50 50 50 49 49 49 51 51 50 50 50 49 47 46 44 43 41 39 36 33 32 30 29 28 27 26
85 85 85 84 83 83 82 80 78 77 75 73 70 68 65 64 65 68 73 77 82 85 87 86 84 83 82 80 79 79 78 77 75 74 74 73 72 71 71 70 70 69 67 65 64 64 63 62 60 59 58 57 56 55 54 54 54 53 52 51 49 48 47 48 49 49 50 50 50 48 46 45 44 43 41 40 38 37 35 33 30 28 27 27 26 26 26
80 80 79 78 76 75 72 70 66 64 62 59 57 56 54 54 56 59 62 64 69 73 77 78 79 77 75 72 70 68 66 64 63 63 62 62 62 62 62 62 61 60 58 57 58 59 59 58 57 56 55 54 53 53 53 53 53 52 50 50 49 48 47 47 48 49 48 47 46 44 42 41 40 39 38 36 34 32 31 30 28 27 26 26 26 26 26
76 74 72 69 65 62 59 56 53 50 48 46 44 43 44 45 49 53 57 59 60 62 65 67 68 66 63 61 59 57 55 55 56 56 56 56 56 56 57 56 54 53 52 52 54 55 55 55 54 54 54 53 52 52 51 51 51 50 49 48 47 46 45 44 45 45 44 42 41 40 39 38 37 36 35 34 32 31 30 29 28 27 27 27 27 26 26
66 63 59 55 51 48 46 44 42 40 38 36 34 33 34 37 41 46 51 55 56 57 57 58 58 57 54 53 51 50 50 51 52 53 53 52 51 51 50 50 49 49 50 51 52 53 52 52 51 51 50 50 49 49 49 49 48 47 45 43 42 41 40 41 41 41 39 38 38 37 37 36 36 35 33 33 32 31 30 29 29 28 28 28 27 27 27
49 46 44 41 39 37 36 35 34 34 33 30 28 28 29 32 35 39 43 47 50 51 52 52 52 51 50 50 50 50 50 51 51 51 51 49 47 47 48 49 49 49 48 49 49 49 48 46 46 46 46 45 44 44 44 44 44 42 40 38 37 36 37 38 39 38 37 36 36 36 36 35 35 34 34 33 32 31 31 30 29 29 29 29 28 28 28
36 34 33 33 32 31 30 29 29 29 29 27 26 27 28 31 34 37 40 42 45 47 48 49 48 48 48 48 48 48 48 48 48 48 47 47 47 49 50 50 48 45 44 44 45 45 43 41 41 41 41 40 39 39 39 39 39 39 38 35 34 34 35 37 38 37 36 35 35 35 36 35 35 34 34 34 33 32 31 31 31 31 31 31 30 30 30
29 27 27 28 28 28 28 27 27 27 27 27 27 27 29 32 35 37 39 41 43 45 46 46 45 44 43 44 45 46 46 46 47 48 48 47 47 47 47 46 44 41 38 38 39 40 40 39 38 37 37 37 36 35 35 36 37 38 38 36 34 34 35 36 37 37 36 35 35 35 35 35 35 35 34 34 33 33 32 32 32 32 33 33 32 32 32
25 24 25 25 26 28 28 28 28 28 28 28 28 29 30 32 34 36 38 39 40 41 41 41 41 41 41 43 44 46 47 47 46 46 45 43 41 39 39 39 40 38 35 34 34 36 38 38 38 37 38 37 35 34 34 35 36 38 38 37 35 35 35 36 36 36 36 35 35 35 35 35 35 35 35 34 34 33 33 33 33 34 34 34 34 34 34
Wind_Direction
250 252 253 253 253 254 254 254 256 258 258 258 259 259 261 262 263 263 264 266 268 270 271 271 272 273 274 276 278 279 280 281 282 282 283 284 286 286 288 289 291 291 289 290 292 294 297 300 300 302 304 305 307 308 308 311 315 315 315 316 316 315 313 311 315 320 322 322 323 325 326 326 326 326 326 326 326 326 326 325 324 322 320 317 313 311 309
249 250 252 253 255 256 257 256 257 258 258 258 260 261 261 261 262 264 265 266 266 266 267 269 271 273 275 277 278 278 280 282 282 282 283 284 284 285 286 288 288 289 289 289 290 293 296 297 297 300 302 303 306 307 308 312 314 314 314 315 316 315 311 308 312 318 320 320 322 324 325 324 324 324 325 326 326 326 326 325 323 322 320 317 313 310 309
248 250 253 256 257 257 257 257 257 258 259 259 260 262 262 261 261 263 264 264 264 264 265 268 270 271 273 276 276 277 279 281 281 282 283 283 284 285 285 287 288 289 290 289 291 294 295 293 295 298 299 302 306 307 307 311 313 313 312 313 315 315 309 306 311 316 318 320 322 323 323 323 323 323 324 325 325 326 325 324 322 321 319 316 313 310 309
248 249 251 254 254 255 256 256 256 258 260 260 259 259 261 261 260 260 261 261 262 264 265 268 269 271 273 274 276 277 278 280 280 281 282 282 284 285 285 286 287 288 289 290 291 293 293 293 294 297 299 302 304 305 306 309 311 310 310 311 313 312 307 307 312 316 318 320 321 321 321 322 322 322 323 324 325 325 325 323 322 321 319 316 313 309 310
247 248 249 251 253 253 254 256 256 257 258 258 258 259 260 260 259 259 260 262 264 264 265 267 269 271 272 273 274 277 278 278 279 280 281 282 283 284 285 286 287 288 289 291 292 292 292 293 294 297 300 302 303 304 305 308 309 308 308 311 312 311 310 311 314 316 318 319 319 319 319 320 320 322 323 324 324 324 323 323 322 321 318 315 313 310 310
246 247 248 249 251 251 253 255 256 256 255 256 258 259 260 261 261 261 262 264 265 265 266 267 269 270 271 272 274 276 276 276 278 280 281 281 282 283 285 286 287 289 290 291 292 291 291 292 294 297 299 301 303 304 304 307 308 306 306 309 309 311 313 314 314 315 317 317 317 317 318 318 320 321 322 323 323 323 322 322 321 320 317 313 311 310 308
246 247 248 248 249 250 252 254 255 256 256 258 259 261 262 263 264 264 263 263 265 266 267 267 268 269 270 273 274 274 274 275 278 279 280 280 282 283 285 286 288 290 291 292 292 292 292 293 295 297 299 300 302 303 305 308 307 302 303 306 307 311 314 313 313 314 315 315 316 316 316 317 319 321 321 321 322 322 321 320 319 318 316 312 311 310 309
247 247 248 248 249 251 252 253 255 257 258 259 260 261 263 264 264 264 264 264 265 266 267 267 268 268 270 272 273 273 274 276 277 278 279 280 282 285 286 288 289 291 292 292 292 293 294 294 295 297 299 300 301 302 304 304 299 298 302 306 309 312 313 312 313 314 313 314 315 315 315 316 319 320 320 321 321 321 320 319 317 317 316 314 313 312 312
247 247 248 249 251 251 252 253 255 257 258 259 260 261 263 264 264 265 266 266 266 266 266 267 267 269 270 271 272 273 275 276 276 278 280 281 283 284 286 288 289 290 291 292 292 292 293 293 295 297 298 299 301 302 303 301 299 300 304 307 310 312 311 310 312 312 311 312 314 314 314 316 318 319 319 320 321 321 320 319 317 316 315 315 315 314 313
247 248 248 249 250 251 252 254 255 256 257 258 259 260 261 263 265 265 266 266 266 266 268 268 269 270 270 270 271 273 275 275 276 278 280 281 283 284 285 287 288 289 291 291 291 292 293 294 296 297 298 299 300 301 302 301 301 302 305 307 310 310 309 309 309 309 310 312 314 315 314 315 316 317 319 320 320 320 319 318 316 315 314 315 316 315 313
245 247 248 249 250 251 252 253 254 255 256 257 258 259 260 261 263 264 265 265 266 267 269 269 269 270 271 272 273 274 274 275 276 278 279 280 282 284 285 286 287 288 289 290 291 292 293 293 296 296 296 297 299 300 300 300 301 303 305 307 308 308 308 308 308 309 311 313 314 315 314 314 315 317 318 319 319 319 318 316 315 314 315 315 315 314 313
244 245 247 249 249 250 251 252 254 254 255 256 258 259 260 261 262 263 264 266 267 268 269 270 270 271 272 274 275 274 275 276 277 278 279 279 281 282 283 284 285 287 288 289 291 291 291 292 294 294 293 296 299 299 298 298 300 302 304 305 307 307 307 307 308 309 310 311 313 314 314 314 315 316 317 318 318 318 317 315 313 313 313 313 313 312 312
244 244 246 247 248 249 250 251 253 253 253 254 256 258 259 261 262 262 264 266 268 269 270 271 271 272 272 273 274 275 276 276 276 277 278 279 280 280 281 283 284 286 290 292 292 290 290 292 293 292 292 295 297 297 297 297 299 300 302 305 306 305 305 306 308 308 308 310 312 314 314 314 314 315 316 317 317 316 315 314 312 312 312 311 311 311 311
244 245 245 246 247 248 248 249 251 252 252 253 255 258 260 262 263 264 265 267 268 269 270 271 271 272 272 272 273 275 276 276 276 276 277 279 279 279 280 282 283 286 289 291 290 290 290 290 290 290 292 294 295 297 298 298 298 300 302 304 304 303 303 305 305 306 307 309 311 313 313 313 313 314 314 315 315 314 313 313 312 311 311 311 310 310 310
244 245 245 246 246 247 249 250 252 253 254 255 257 259 260 262 264 265 266 267 268 268 269 269 270 271 273 273 273 274 275 275 276 277 278 279 279 279 280 281 282 284 282 281 281 283 286 287 288 289 291 293 295 297 297 297 298 300 302 302 302 302 303 305 306 307 308 309 311 312 312 312 312 312 312 313 313 312 312 311 311 311 311 311 310 310 310
244 245 246 246 246 247 248 250 252 253 255 256 257 258 260 261 263 264 265 265 266 267 268 269 270 272 273 273 272 273 273 274 275 276 277 278 279 280 280 280 282 282 280 279 280 282 284 287 288 289 291 293 295 295 296 297 299 302 303 303 302 303 305 307 308 308 308 309 310 310 310 310 310 311 311 311 311 310 310 310 310 310 310 310 310 310 310
244 245 246 246 247 247 247 249 251 253 254 256 257 258 259 260 261 262 263 264 265 267 269 269 270 271 271 272 273 273 274 275 275 276 276 276 277 279 280 281 281 281 281 282 283 284 286 287 287 289 291 293 294 294 295 296 298 302 304 302 301 303 306 307 308 308 307 308 308 308 308 309 309 309 309 309 309 309 309 309 309 309 309 309 309 309 309
244 245 247 247 248 248 249 249 251 253 255 256 257 257 257 259 260 261 262 264 265 267 267 268 269 270 270 271 272 273 274 275 275 276 277 277 278 279 280 281 282 282 282 283 284 286 287 286 286 288 292 294 294 294 294 295 297 300 302 300 299 302 305 306 307 306 306 306 306 306 307 307 307 308 308 308 308 308 308 308 308 309 308 308 308 308 309
243 244 246 247 248 249 250 251 252 253 253 254 255 256 257 258 260 261 262 264 264 265 266 267 268 269 269 270 270 271 273 275 276 277 277 278 279 280 280 281 282 283 284 286 287 289 289 288 289 292 293 294 294 295 295 295 296 299 300 299 299 301 303 304 304 303 303 304 304 305 305 305 306 306 306 307 307 307 307 307 307 307 307 307 307 308 308
240 242 244 245 246 247 248 250 251 252 252 252 254 256 258 258 259 261 262 262 264 265 265 266 267 268 268 269 270 270 272 274 275 276 277 278 278 279 279 280 282 284 287 288 289 290 290 290 292 293 292 292 294 295 295 295 296 297 299 299 299 300 301 302 302 302 302 303 303 304 304 304 305 305 305 306 306 306 306 306 306 306 307 307 308 309 309
237 238 240 242 244 246 247 248 250 251 251 251 252 254 256 258 259 261 262 263 264 265 265 264 265 266 268 269 270 270 271 273 273 274 275 276 277 278 279 280 282 284 286 287 287 286 286 287 289 290 291 292 292 293 293 293 294 296 298 298 299 300 300 300 301 301 302 302 302 303 303 303 304 305 305 306 306 305 306 306 306 307 308 308 309 309 309
238 238 239 240 243 245 245 245 248 249 248 249 251 253 256 258 260 262 264 265 265 265 265 265 265 266 267 268 269 270 270 271 272 272 273 274 276 277 279 281 283 285 285 285 284 283 284 286 288 288 289 290 290 291 292 293 295 296 297 298 299 299 299 299 300 300 301 301 301 302 302 303 304 304 305 305 305 305 305 306 306 307 308 309 308 308 309
238 239 240 241 242 244 243 244 246 248 249 250 252 255 257 260 262 263 264 265 264 264 265 265 265 266 266 267 268 268 269 270 271 272 273 274 275 277 278 281 283 284 284 283 282 282 283 286 287 288 288 289 289 291 293 294 295 297 298 299 298 298 299 300 300 301 301 301 301 301 302 303 304 304 304 304 305 305 306 306 307 308 308 308 308 308 308
239 240 241 242 243 244 245 245 247 249 251 253 255 257 260 261 262 262 263 263 263 265 265 265 265 266 266 266 266 267 268 268 270 272 274 274 276 277 278 279 281 282 281 281 281 283 285 287 287 287 288 289 290 291 293 295 296 297 298 298 298 299 300 300 301 301 301 301 301 302 303 304 304 304 304 304 305 306 306 307 308 308 308 308 307 307 307
241 241 242 243 246 247 248 247 248 250 252 254 256 258 260 261 261 262 263 263 263 264 265 265 265 266 266 266 266 266 267 268 270 272 273 275 277 278 279 280 281 280 279 280 282 284 286 287 287 287 289 290 291 292 294 295 295 296 296 297 298 299 300 300 301 301 301 301 302 303 304 305 305 304 304 305 307 307 307 308 308 309 308 308 307 306 306
243 243 243 243 246 248 250 250 251 252 253 254 255 257 258 260 262 263 265 265 264 264 265 266 266 265 265 266 266 266 267 269 271 272 273 275 277 278 280 281 280 279 280 282 283 284 285 286 287 288 289 290 290 292 293 294 295 295 296 297 298 298 299 300 300 300 301 301 302 303 304 304 304 304 305 306 307 308 308 308 308 308 308 307 306 305 305
246 246 245 245 246 249 252 253 254 254 254 254 255 257 259 261 262 263 264 265 265 266 266 266 266 266 266 266 267 267 268 269 270 272 273 275 276 277 279 280 280 280 282 284 284 284 285 286 287 288 289 290 290 292 293 294 294 294 295 296 297 298 298 299 299 300 301 302 302 303 303 304 304 304 305 306 307 307 307 307 307 308 307 306 305 304 303
246 247 248 248 248 249 250 252 254 255 256 256 257 257 258 259 260 262 263 264 265 266 266 266 266 266 266 267 268 269 269 270 271 272 273 275 276 277 278 279 280 281 283 283 284 284 285 286 287 289 289 290 291 292 293 293 293 294 295 296 296 297 298 298 299 300 302 302 302 302 303 303 303 303 305 306 306 307 307 307 307 306 306 305 304 302 301
246 248 250 250 250 249 250 251 253 256 258 259 259 259 259 260 261 262 263 264 265 266 266 266 266 266 267 268 269 270 271 272 273 273 274 276 277 278 279 279 280 281 282 283 283 285 286 287 289 290 290 290 291 292 292 292 292 293 294 295 296 297 298 298 299 300 301 301 301 302 303 303 303 304 305 306 306 306 306 306 306 305 304 303 301 300 299
246 249 250 250 251 251 252 253 254 256 258 259 261 262 262 263 263 263 264 264 265 266 267 267 267 268 269 270 270 271 272 273 274 275 276 277 277 278 279 280 281 282 283 284 285 286 287 289 290 290 290 290 291 291 291 292 292 293 294 295 297 297 298 298 299 300 301 301 301 302 303 304 304 304 305 306 307 306 305 304 304 304 302 301 299 298 297
246 248 249 250 251 252 253 254 254 256 257 259 261 262 264 265 265 265 265 266 267 267 268 269 270 270 270 271 272 272 273 273 274 275 276 277 278 279 280 280 281 282 283 284 285 287 288 289 289 289 289 289 290 290 290 291 292 292 293 295 296 297 297 298 299 299 300 300 300 301 302 303 304 304 305 305 305 304 303 303 303 302 300 299 298 297 295
246 247 249 250 251 252 253 254 255 257 258 259 260 261 263 264 266 266 267 268 269 269 270 271 271 272 272 273 273 274 274 275 275 276 277 278 279 280 280 281 281 282 283 284 284 285 286 287 287 287 287 287 289 290 290 291 291 292 293 294 295 295 296 298 298 299 299 299 300 300 301 302 302 303 303 303 302 302 302 302 301 300 299 298 297 295 293
248 248 249 250 252 253 254 255 256 257 258 259 260 261 262 263 265 266 267 268 269 270 271 271 272 273 273 274 274 275 276 276 277 278 279 280 280 280 281 281 282 283 283 282 283 283 285 285 286 286 286 287 288 290 290 291 292 292 292 293 294 295 296 297 297 298 298 299 299 300 300 301 301 301 301 300 300 300 301 300 300 299 298 297 295 293 291
252 252 252 253 253 254 255 256 257 258 259 260 261 262 262 264 265 266 267 268 269 270 271 272 272 273 274 275 275 276 277 277 278 279 280 280 281 281 281 281 281 281 280 281 282 284 285 286 286 286 286 287 289 290 290 291 291 292 293 294 294 295 295 296 296 297 297 298 298 299 299 299 299 298 298 298 298 299 299 299 298 298 297 295 293 291 288
254 255 256 256 256 256 257 257 258 259 260 261 262 263 264 265 266 267 268 269 270 271 272 273 274 274 275 276 276 277 277 278 278 278 279 280 280 280 280 279 279 278 278 280 283 285 285 285 285 285 286 287 289 290 290 291 291 292 293 294 294 294 295 295 295 296 296 297 297 297 297 297 296 296 296 296 297 297 298 298 298 297 296 294 292 289 285
257 257 258 258 259 259 259 259 260 260 261 262 263 264 266 267 268 268 269 270 271 272 273 273 274 274 275 275 276 276 276 277 276 276 277 279 279 278 277 277 278 278 279 281 282 283 283 284 285 285 286 287 288 289 289 290 291 292 292 293 293 294 294 294 294 295 295 295 295 295 295 295 295 295 295 295 296 296 297 296 296 296 294 292 290 288 284
259 259 260 260 261 261 262 262 262 262 263 264 264 265 266 267 268 268 269 270 271 272 272 273 274 274 274 274 274 274 275 274 274 274 276 276 275 274 275 276 277 278 280 281 282 282 283 284 284 285 286 287 288 288 289 289 290 291 292 292 293 293 293 293 293 293 293 293 293 293 294 294 295 295 295 295 295 295 295 295 294 293 291 289 288 288 285
261 262 263 263 263 264 264 265 265 265 265 265 266 266 267 268 269 269 270 270 271 271 272 272 273 273 273 273 273 273 273 274 274 274 274 274 273 274 275 277 278 279 280 281 282 283 283 283 283 284 285 286 287 287 288 289 290 291 291 291 292 292 291 291 291 291 291 291 292 292 293 294 294 294 294 295 295 294 294 294 293 291 289 287 287 287 286
263 264 265 265 265 265 266 266 267 267 267 267 267 268 268 268 269 270 270 271 271 272 272 272 272 273 273 273 273 273 273 274 275 275 275 274 274 276 277 278 279 280 280 281 281 281 282 282 283 284 284 285 286 287 287 288 289 289 290 290 290 290 290 289 289 289 290 290 291 291 292 293 293 293 293 294 294 294 293 292 291 290 289 288 287 285 284
264 265 265 266 267 267 267 267 268 268 269 269 269 270 270 270 271 272 273 273 274 274 274 273 273 273 273 274 274 274 274 274 275 275 274 274 275 276 277 278 278 279 279 279 280 280 281 281 282 284 284 285 285 286 287 288 288 289 288 288 288 288 288 288 288 288 289 289 290 290 291 291 292 292 293 294 294 294 293 292 291 290 288 287 286 285 283
265 265 266 267 268 268 269 269 270 270 271 271 271 271 272 272 273 274 275 275 276 275 275 275 274 274 274 275 275 275 275 275 275 275 275 275 276 276 277 277 277 277 278 278 279 280 281 282 283 283 284 284 284 285 286 287 287 287 287 287 286 287 287 287 287 287 288 288 289 289 290 290 291 292 293 293 293 292 292 291 291 290 288 286 285 284 284
266 267 267 268 268 269 270 270 271 271 272 272 273 273 273 274 275 276 276 276 275 275 274 274 273 273 273 274 274 274 275 275 275 275 276 276 276 276 276 277 277 277 277 278 280 281 282 282 283 283 283 284 284 285 285 285 285 286 286 286 286 286 286 286 287 288 288 288 288 289 289 290 291 292 292 292 291 290 289 288 288 287 286 285 284 283 282
268 268 269 269 269 270 271 271 272 273 273 274 274 274 274 274 275 275 274 274 273 273 272 272 272 272 272 273 273 274 274 275 275 276 276 276 276 277 277 278 278 278 279 280 281 282 282 282 282 283 284 284 284 284 284 284 284 284 285 285 286 287 288 288 289 289 288 288 287 288 289 290 291 291 291 291 290 289 289 287 286 285 285 284 284 283 282
269 269 270 271 272 272 273 274 274 275 275 275 275 274 273 272 270 268 267 268 268 269 269 270 272 273 274 274 275 275 275 276 276 276 276 276 276 277 277 278 279 279 280 281 281 281 281 281 282 283 283 283 283 284 284 284 285 285 286 287 288 289 290 291 291 290 289 288 288 288 289 290 291 290 290 290 290 289 289 288 286 286 285 285 285 284 284
271 271 272 273 274 275 276 276 276 276 276 275 274 272 270 266 263 261 260 262 263 264 265 268 270 272 273 275 276 276 276 277 276 276 275 275 276 276 277 277 278 279 280 281 281 281 281 282 283 284 284 284 285 286 286 287 287 288 290 291 291 292 291 291 290 289 288 287 288 289 289 289 289 289 288 288 287 287 287 287 287 285 284 284 284 285 285
274 275 275 276 277 278 278 278 278 277 276 274 272 269 265 261 257 255 255 257 259 261 262 264 267 270 272 274 275 276 276 276 275 274 274 275 275 276 276 277 278 279 280 280 281 281 282 283 284 285 286 286 287 287 287 288 289 290 291 291 292 292 290 288 287 286 286 287 288 288 288 287 286 286 286 285 284 283 284 285 285 284 283 283 284 284 285
277 278 279 280 281 281 281 281 280 278 276 273 270 265 261 258 255 251 250 252 256 259 261 264 266 270 273 274 274 274 274 274 274 275 275 276 277 277 277 277 278 279 280 281 282 282 284 285 286 286 287 287 288 288 288 288 288 289 290 290 290 289 288 286 285 284 285 286 286 286 286 285 285 284 283 283 283 283 283 284 284 284 284 284 284 285 287
278 280 282 283 283 282 282 281 281 279 277 274 270 264 260 256 254 251 250 251 255 259 263 267 270 273 275 275 276 276 276 277 278 279 279 280 280 279 278 279 281 282 283 283 283 284 285 286 287 287 287 288 288 288 288 288 288 288 288 288 287 287 286 284 284 284 285 285 285 284 283 283 283 282 282 282 283 283 283 283 283 282 282 282 283 285 287
278 280 281 282 282 282 281 279 278 277 275 272 267 261 254 251 251 252 253 254 257 261 265 269 271 273 274 275 277 278 279 280 281 281 281 282 282 281 281 283 286 287 287 286 286 286 286 286 286 286 286 286 286 286 286 286 287 287 287 287 286 285 284 283 282 283 284 283 283 283 282 282 282 282 282 282 282 282 281 281 280 279 279 280 281 283 285
276 276 277 278 278 277 276 274 272 271 269 265 259 253 249 247 247 250 253 255 258 261 264 267 270 272 274 277 279 281 282 283 283 284 284 284 285 286 287 288 289 289 289 288 288 287 287 286 285 284 284 284 285 286 287 287 288 288 288 287 285 283 282 281 281 282 282 281 281 281 281 281 282 282 282 281 281 280 280 279 278 278 278 279 280 282 284
273 272 271 271 270 269 269 268 266 264 262 259 255 251 248 246 246 248 250 253 256 259 263 267 271 275 278 280 281 282 283 284 284 285 285 286 286 287 288 288 288 287 287 287 287 288 288 288 287 286 285 285 286 286 287 287 287 287 287 286 285 282 281 280 281 282 282 281 280 280 280 281 281 280 280 280 279 279 278 278 278 277 278 278 280 282 284
270 267 264 263 263 264 265 265 263 261 259 257 254 252 250 250 250 252 254 256 260 264 268 272 276 278 280 281 282 283 284 284 285 285 286 286 287 287 287 288 289 289 288 288 288 289 289 289 289 288 287 286 285 284 283 283 283 283 283 283 283 282 281 280 281 281 281 281 281 281 281 281 281 280 280 280 279 278 278 278 277 277 278 279 281 282 285
Height
10889 10890 10890 10892 10894 10895 10899 10903 10902 10900 10900 10902 10904 10906 10908 10907 10909 10913 10912 10910 10908 10907 10907 10907 10907 10907 10909 10913 10915 10913 10914 10916 10916 10914 10913 10913 10913 10912 10911 10911 10910 10908 10905 10900 10897 10894 10892 10890 10886 10882 10880 10878 10875 10869 10864 10865 10864 10857 10852 10852 10851 10849 10844 10840 10836 10833 10830 10827 10823 10818 10811 10806 10802 10798 10794 10790 10785 10781 10776 10772 10768 10763 10758 10753 10749 10745 10742
10882 10881 10881 10886 10887 10888 10892 10895 10894 10892 10894 10897 10899 10900 10900 10900 10903 10905 10903 10902 10901 10899 10898 10900 10901 10901 10903 10906 10907 10906 10907 10908 10908 10907 10906 10905 10905 10905 10905 10904 10902 10902 10900 10896 10892 10889 10887 10885 10880 10876 10875 10873 10870 10863 10856 10857 10856 10849 10844 10842 10841 10840 10837 10834 10830 10825 10822 10819 10815 10809 10804 10799 10795 10791 10787 10783 10778 10774 10769 10763 10759 10755 10750 10745 10741 10737 10734
10874 10876 10878 10880 10880 10880 10882 10885 10886 10886 10888 10892 10893 10891 10889 10891 10897 10898 10893 10890 10891 10892 10892 10895 10895 10896 10899 10901 10899 10900 10902 10901 10899 10900 10899 10898 10897 10896 10897 10897 10895 10894 10893 10890 10888 10885 10881 10878 10874 10870 10869 10869 10867 10858 10850 10851 10850 10842 10838 10835 10833 10832 10831 10829 10825 10820 10816 10812 10807 10802 10796 10792 10788 10784 10780 10775 10771 10766 10761 10755 10750 10746 10741 10736 10732 10729 10726
10866 10872 10873 10870 10868 10871 10873 10875 10878 10881 10883 10884 10883 10881 10880 10882 10887 10887 10882 10881 10884 10886 10887 10889 10889 10890 10894 10895 10893 10893 10895 10894 10893 10893 10892 10892 10890 10888 10888 10889 10889 10888 10885 10884 10883 10879 10873 10871 10867 10863 10862 10863 10861 10852 10845 10846 10843 10835 10832 10830 10826 10825 10826 10824 10819 10813 10809 10806 10801 10795 10790 10785 10782 10778 10773 10768 10763 10757 10752 10747 10742 10738 10733 10728 10724 10722 10720
10859 10863 10864 10860 10859 10862 10865 10867 10871 10875 10875 10872 10871 10872 10872 10873 10876 10875 10875 10876 10878 10879 10881 10883 10883 10885 10888 10889 10888 10887 10887 10886 10887 10886 10885 10885 10884 10882 10880 10880 10880 10881 10878 10877 10877 10872 10867 10863 10860 10856 10854 10854 10851 10843 10839 10840 10837 10829 10825 10824 10821 10819 10818 10815 10809 10805 10801 10797 10793 10788 10783 10779 10775 10771 10766 10761 10756 10750 10744 10740 10735 10731 10726 10721 10717 10715 10713
10850 10852 10853 10853 10850 10852 10859 10862 10863 10865 10864 10862 10864 10866 10864 10864 10866 10869 10872 10871 10869 10871 10874 10877 10878 10879 10880 10881 10883 10881 10878 10879 10881 10880 10878 10877 10876 10876 10874 10872 10871 10871 10870 10869 10869 10866 10862 10857 10853 10851 10847 10845 10842 10836 10833 10835 10831 10822 10818 10817 10814 10812 10809 10805 10800 10796 10792 10788 10785 10782 10777 10772 10768 10763 10758 10752 10747 10742 10736 10732 10729 10725 10720 10716 10712 10709 10707
10840 10843 10843 10842 10840 10845 10854 10855 10852 10852 10854 10857 10859 10859 10857 10855 10858 10863 10865 10864 10863 10864 10867 10870 10871 10871 10873 10876 10875 10870 10870 10875 10876 10873 10871 10870 10869 10868 10868 10865 10863 10862 10861 10859 10858 10857 10855 10850 10847 10845 10840 10836 10834 10829 10827 10829 10824 10817 10813 10811 10808 10805 10801 10797 10792 10788 10784 10780 10777 10774 10770 10765 10761 10757 10751 10744 10739 10734 10729 10724 10720 10716 10712 10709 10706 10703 10700
10831 10834 10833 10832 10834 10843 10849 10846 10843 10844 10847 10850 10851 10852 10850 10847 10850 10853 10855 10857 10858 10856 10859 10863 10862 10863 10870 10870 10863 10859 10864 10871 10870 10864 10863 10864 10863 10861 10860 10858 10855 10854 10852 10850 10847 10847 10846 10843 10840 10838 10831 10828 10827 10822 10823 10826 10819 10811 10807 10804 10800 10796 10791 10786 10783 10779 10776 10772 10768 10765 10761 10757 10754 10750 10744 10737 10731 10726 10720 10715 10710 10706 10702 10700 10698 10694 10692
10821 10825 10826 10825 10829 10835 10838 10837 10837 10838 10839 10841 10842 10844 10841 10838 10841 10843 10846 10851 10851 10847 10851 10855 10854 10858 10864 10859 10851 10853 10859 10862 10861 10857 10855 10856 10856 10855 10854 10851 10847 10844 10843 10842 10840 10838 10837 10835 10832 10829 10823 10820 10818 10813 10813 10815 10809 10801 10796 10792 10789 10786 10780 10775 10773 10770 10767 10764 10759 10755 10751 10748 10745 10742 10737 10731 10724 10718 10712 10706 10700 10696 10692 10690 10688 10685 10682
10812 10816 10817 10817 10821 10826 10830 10830 10829 10830 10833 10832 10832 10834 10833 10831 10833 10834 10836 10841 10840 10839 10844 10846 10846 10852 10853 10845 10845 10851 10851 10850 10853 10853 10849 10848 10847 10848 10847 10844 10839 10836 10833 10832 10832 10832 10830 10827 10823 10821 10817 10812 10809 10804 10800 10799 10796 10791 10787 10782 10779 10775 10769 10766 10763 10760 10758 10756 10752 10747 10743 10740 10737 10733 10728 10724 10719 10713 10706 10699 10693 10688 10684 10680 10678 10675 10671
10802 10806 10806 10807 10814 10820 10822 10821 10818 10821 10825 10822 10821 10825 10824 10824 10828 10828 10827 10829 10830 10833 10838 10838 10838 10842 10840 10835 10840 10847 10843 10839 10846 10848 10842 10840 10841 10841 10840 10837 10833 10829 10825 10823 10824 10824 10821 10818 10816 10814 10810 10804 10800 10796 10791 10788 10786 10782 10778 10774 10770 10766 10761 10758 10755 10751 10748 10748 10744 10739 10735 10730 10726 10722 10717 10713 10710 10705 10699 10692 10686 10681 10676 10672 10669 10666 10661
10794 10796 10795 10799 10806 10809 10810 10810 10808 10811 10815 10813 10812 10815 10815 10817 10821 10821 10819 10819 10821 10827 10830 10829 10830 10833 10833 10830 10831 10836 10835 10832 10837 10840 10834 10833 10836 10834 10831 10829 10826 10822 10817 10816 10817 10816 10811 10808 10810 10810 10805 10797 10791 10787 10782 10779 10777 10775 10772 10767 10763 10758 10755 10751 10748 10744 10740 10738 10736 10733 10728 10722 10717 10711 10707 10703 10699 10696 10692 10686 10680 10676 10672 10667 10663 10659 10654
10785 10786 10786 10790 10795 10796 10799 10801 10797 10798 10803 10804 10804 10806 10808 10810 10811 10812 10812 10813 10814 10818 10820 10820 10821 10824 10826 10825 10821 10824 10827 10824 10828 10833 10827 10825 10828 10826 10823 10822 10819 10817 10815 10809 10806 10806 10802 10799 10800 10802 10799 10791 10783 10777 10774 10771 10768 10766 10764 10760 10755 10752 10748 10745 10741 10738 10733 10729 10727 10726 10721 10714 10707 10702 10698 10694 10690 10686 10682 10677 10672 10670 10666 10661 10657 10653 10648
10774 10776 10778 10782 10783 10785 10789 10789 10784 10786 10792 10796 10800 10803 10803 10801 10800 10803 10807 10807 10807 10810 10811 10812 10812 10812 10816 10818 10814 10816 10818 10813 10815 10824 10823 10817 10816 10816 10816 10814 10810 10815 10818 10806 10794 10793 10793 10791 10789 10789 10787 10780 10772 10768 10765 10762 10760 10758 10754 10749 10745 10743 10740 10737 10734 10731 10727 10721 10718 10717 10712 10704 10698 10694 10690 10686 10682 10677 10672 10666 10662 10659 10657 10653 10648 10644 10640
10762 10765 10769 10771 10771 10776 10781 10780 10776 10779 10784 10791 10797 10799 10796 10792 10790 10794 10800 10799 10798 10801 10803 10803 10802 10801 10806 10810 10807 10807 10809 10804 10804 10813 10815 10807 10803 10806 10808 10804 10801 10807 10811 10801 10790 10786 10785 10782 10779 10776 10773 10770 10765 10760 10755 10751 10750 10750 10746 10740 10735 10733 10731 10728 10724 10721 10718 10712 10708 10707 10703 10697 10693 10688 10684 10680 10675 10670 10666 10660 10654 10650 10647 10644 10639 10634 10631
10753 10756 10760 10760 10761 10770 10775 10772 10769 10771 10777 10784 10790 10790 10787 10784 10783 10786 10789 10788 10789 10793 10794 10792 10792 10793 10797 10800 10797 10796 10799 10796 10794 10801 10806 10800 10793 10795 10797 10794 10792 10793 10791 10787 10785 10781 10776 10773 10768 10762 10761 10762 10760 10755 10748 10743 10741 10741 10738 10731 10725 10723 10721 10718 10714 10711 10708 10703 10699 10696 10693 10689 10686 10682 10677 10673 10668 10662 10658 10654 10648 10643 10639 10635 10631 10626 10622
10744 10748 10751 10751 10753 10759 10763 10762 10760 10763 10770 10779 10783 10779 10775 10773 10775 10777 10776 10777 10782 10786 10785 10783 10783 10785 10787 10789 10787 10785 10788 10788 10785 10788 10793 10791 10786 10786 10785 10783 10783 10781 10776 10774 10774 10771 10767 10763 10757 10751 10752 10754 10754 10750 10745 10739 10735 10734 10731 10725 10719 10716 10713 10709 10705 10703 10699 10695 10691 10688 10683 10680 10678 10674 10669 10665 10660 10655 10649 10645 10641 10637 10632 10627 10623 10619 10614
10737 10740 10742 10744 10745 10746 10749 10754 10757 10759 10766 10772 10771 10765 10760 10759 10763 10767 10769 10773 10776 10776 10774 10774 10775 10776 10777 10779 10778 10774 10775 10778 10777 10777 10780 10780 10777 10777 10776 10773 10770 10767 10765 10763 10762 10761 10758 10753 10746 10744 10743 10743 10743 10743 10740 10733 10728 10725 10722 10716 10713 10710 10705 10700 10696 10694 10690 10686 10683 10681 10676 10672 10669 10666 10660 10655 10651 10647 10641 10636 10632 10629 10624 10618 10615 10612 10607
10730 10732 10734 10736 10736 10735 10739 10748 10752 10753 10757 10760 10756 10751 10749 10750 10754 10759 10764 10767 10767 10763 10764 10766 10765 10766 10769 10771 10769 10764 10763 10766 10767 10767 10769 10770 10767 10765 10765 10765 10760 10755 10752 10750 10748 10748 10745 10738 10735 10735 10733 10728 10728 10729 10728 10724 10720 10717 10713 10708 10705 10704 10699 10694 10691 10687 10683 10679 10675 10672 10669 10664 10661 10657 10652 10647 10642 10639 10634 10628 10624 10620 10615 10609 10605 10602 10599
10720 10723 10725 10726 10726 10726 10732 10740 10743 10743 10746 10749 10745 10740 10740 10743 10747 10750 10753 10756 10755 10754 10757 10757 10755 10757 10761 10761 10758 10755 10754 10756 10758 10757 10758 10759 10757 10754 10754 10755 10752 10746 10742 10739 10738 10737 10734 10727 10722 10721 10719 10716 10715 10714 10713 10712 10710 10708 10705 10702 10699 10696 10692 10688 10684 10680 10675 10669 10666 10662 10658 10655 10652 10648 10643 10638 10633 10629 10625 10620 10614 10610 10605 10600 10595 10591 10588
10711 10712 10714 10717 10717 10719 10726 10733 10734 10733 10735 10735 10733 10731 10732 10735 10738 10739 10741 10746 10748 10746 10747 10747 10747 10748 10751 10752 10749 10746 10745 10746 10748 10749 10748 10747 10745 10744 10743 10742 10741 10739 10735 10732 10731 10731 10730 10724 10717 10711 10707 10707 10704 10700 10699 10701 10700 10698 10697 10695 10691 10687 10683 10678 10674 10671 10665 10659 10654 10651 10647 10644 10642 10638 10632 10627 10622 10618 10614 10609 10604 10599 10594 10590 10585 10581 10577
10699 10701 10706 10711 10709 10710 10718 10724 10722 10719 10720 10721 10722 10724 10725 10727 10730 10732 10734 10737 10738 10735 10734 10736 10737 10738 10741 10743 10740 10738 10738 10737 10736 10738 10739 10738 10735 10734 10733 10731 10729 10727 10725 10724 10723 10723 10722 10719 10715 10709 10703 10700 10696 10690 10688 10689 10690 10690 10690 10688 10683 10679 10675 10670 10666 10663 10657 10650 10645 10641 10636 10633 10632 10628 10622 10616 10612 10607 10603 10598 10593 10588 10583 10579 10575 10571 10567
10689 10693 10700 10703 10700 10700 10707 10711 10708 10707 10709 10711 10713 10718 10721 10721 10722 10724 10725 10725 10725 10724 10724 10726 10727 10728 10732 10734 10731 10729 10731 10729 10725 10726 10729 10727 10724 10725 10726 10723 10719 10715 10714 10713 10712 10712 10711 10710 10709 10705 10699 10694 10689 10685 10682 10680 10679 10678 10676 10673 10669 10666 10663 10659 10655 10651 10646 10640 10635 10630 10626 10622 10620 10617 10611 10606 10601 10596 10592 10587 10583 10578 10573 10569 10565 10561 10558
10682 10689 10692 10692 10691 10691 10694 10697 10699 10700 10702 10705 10709 10713 10715 10712 10711 10712 10714 10714 10714 10714 10713 10716 10718 10718 10720 10722 10722 10721 10720 10720 10719 10717 10716 10715 10713 10713 10716 10716 10713 10709 10705 10702 10700 10699 10700 10700 10698 10694 10691 10687 10682 10678 10676 10673 10669 10666 10662 10657 10654 10651 10648 10644 10641 10638 10633 10627 10623 10619 10614 10610 10607 10603 10599 10595 10591 10585 10579 10576 10573 10568 10563 10559 10555 10551 10548
10678 10684 10685 10683 10681 10678 10681 10688 10692 10692 10697 10705 10707 10704 10700 10697 10698 10702 10705 10705 10705 10704 10703 10706 10709 10708 10707 10710 10712 10711 10710 10712 10713 10708 10704 10703 10702 10700 10702 10706 10704 10699 10695 10693 10691 10689 10688 10687 10684 10681 10680 10678 10674 10669 10667 10666 10661 10656 10651 10647 10643 10639 10636 10632 10628 10625 10621 10616 10612 10608 10603 10598 10593 10588 10584 10582 10579 10574 10567 10564 10561 10557 10552 10549 10545 10541 10538
10671 10674 10675 10675 10671 10667 10672 10681 10685 10686 10692 10699 10698 10690 10686 10688 10692 10695 10695 10694 10694 10694 10695 10698 10700 10698 10696 10697 10701 10702 10703 10704 10703 10698 10694 10694 10692 10690 10693 10694 10689 10685 10685 10685 10683 10680 10678 10675 10672 10668 10666 10666 10662 10659 10657 10655 10650 10644 10641 10638 10633 10629 10626 10621 10616 10613 10610 10606 10602 10598 10592 10586 10580 10575 10570 10568 10566 10563 10557 10552 10550 10547 10543 10539 10535 10531 10529
10659 10658 10662 10666 10666 10665 10669 10673 10675 10675 10679 10684 10685 10683 10682 10683 10684 10684 10683 10682 10683 10684 10686 10690 10691 10687 10684 10686 10690 10692 10694 10696 10694 10688 10686 10685 10682 10682 10686 10683 10674 10671 10675 10675 10671 10668 10666 10664 10662 10658 10653 10650 10649 10648 10647 10643 10637 10632 10630 10628 10623 10619 10616 10610 10604 10601 10599 10595 10592 10587 10582 10576 10570 10564 10560 10556 10553 10550 10547 10543 10539 10536 10532 10528 10526 10523 10520
10645 10645 10653 10660 10661 10662 10663 10663 10662 10662 10665 10670 10675 10677 10675 10673 10673 10673 10673 10673 10674 10674 10675 10678 10680 10677 10674 10676 10680 10681 10682 10685 10685 10680 10678 10675 10670 10670 10676 10673 10663 10661 10664 10662 10657 10655 10654 10651 10649 10646 10641 10636 10635 10636 10634 10631 10625 10621 10618 10616 10612 10608 10604 10598 10594 10592 10589 10584 10580 10576 10572 10566 10560 10554 10550 10546 10542 10538 10537 10534 10530 10526 10522 10518 10516 10513 10512
10637 10641 10648 10650 10650 10652 10654 10654 10655 10656 10657 10659 10662 10663 10663 10664 10665 10665 10664 10664 10665 10665 10664 10664 10667 10667 10665 10666 10671 10672 10671 10672 10670 10667 10668 10668 10662 10658 10661 10659 10652 10650 10652 10648 10643 10642 10641 10637 10635 10632 10626 10622 10622 10623 10620 10617 10614 10611 10607 10604 10600 10596 10591 10586 10583 10582 10579 10573 10568 10564 10560 10556 10550 10544 10540 10536 10531 10528 10526 10523 10520 10517 10513 10509 10506 10504 10503
10635 10638 10639 10637 10639 10642 10645 10647 10650 10650 10649 10648 10649 10650 10651 10654 10655 10655 10656 10655 10654 10655 10654 10651 10653 10657 10657 10656 10660 10663 10661 10659 10657 10654 10655 10658 10654 10648 10647 10644 10638 10636 10637 10633 10629 10629 10627 10624 10621 10616 10610 10607 10608 10609 10608 10604 10601 10599 10596 10592 10588 10583 10579 10575 10573 10571 10567 10562 10557 10553 10548 10543 10538 10533 10528 10524 10521 10518 10515 10512 10509 10507 10504 10500 10498 10496 10495
10631 10629 10627 10628 10632 10634 10635 10637 10640 10641 10640 10640 10641 10640 10641 10642 10643 10644 10645 10645 10644 10646 10645 10641 10641 10645 10646 10644 10648 10652 10650 10649 10648 10645 10643 10644 10643 10638 10634 10630 10625 10624 10624 10621 10618 10616 10615 10612 10607 10602 10596 10593 10593 10595 10596 10593 10590 10588 10585 10581 10577 10572 10567 10563 10562 10560 10556 10551 10547 10543 10538 10533 10527 10522 10518 10514 10511 10508 10504 10502 10500 10497 10494 10492 10490 10488 10487
10620 10618 10618 10621 10624 10625 10626 10628 10631 10631 10631 10631 10632 10632 10632 10633 10633 10633 10634 10635 10634 10634 10634 10631 10630 10632 10633 10632 10636 10639 10638 10636 10637 10636 10634 10633 10631 10625 10620 10616 10612 10612 10612 10610 10607 10605 10604 10600 10596 10591 10585 10582 10580 10581 10581 10580 10578 10576 10575 10571 10567 10563 10558 10553 10550 10548 10545 10541 10537 10532 10528 10523 10518 10512 10508 10505 10502 10498 10495 10493 10490 10488 10485 10484 10482 10480 10479
10608 10609 10612 10614 10616 10617 10618 10620 10621 10622 10621 10621 10622 10624 10624 10624 10623 10623 10624 10624 10623 10624 10623 10621 10619 10620 10622 10621 10623 10626 10626 10624 10623 10623 10623 10621 10617 10610 10605 10602 10600 10599 10598 10597 10596 10594 10592 10589 10585 10580 10574 10571 10570 10570 10568 10565 10563 10562 10561 10559 10555 10552 10549 10544 10539 10536 10533 10529 10525 10521 10517 10512 10507 10503 10499 10496 10492 10490 10487 10485 10482 10479 10477 10476 10475 10473 10471
10599 10602 10604 10606 10608 10609 10610 10611 10612 10612 10612 10612 10612 10613 10614 10614 10614 10613 10613 10613 10613 10614 10612 10609 10607 10608 10609 10610 10611 10613 10613 10612 10611 10612 10611 10608 10601 10594 10590 10588 10587 10587 10585 10584 10583 10583 10580 10577 10573 10568 10563 10561 10560 10559 10556 10552 10549 10547 10546 10546 10543 10540 10537 10532 10528 10524 10521 10516 10512 10509 10505 10501 10497 10493 10490 10487 10484 10482 10479 10476 10474 10472 10469 10467 10467 10467 10465
10593 10594 10596 10597 10599 10600 10601 10602 10603 10603 10604 10604 10603 10603 10603 10604 10604 10603 10602 10602 10603 10603 10600 10598 10597 10597 10597 10598 10599 10600 10600 10600 10600 10600 10600 10598 10591 10581 10575 10575 10575 10575 10573 10572 10571 10570 10569 10565 10560 10555 10552 10552 10551 10549 10545 10540 10537 10535 10533 10532 10530 10527 10524 10520 10516 10513 10509 10505 10500 10497 10493 10490 10487 10484 10482 10479 10475 10473 10471 10469 10466 10464 10461 10458 10458 10459 10458
10586 10587 10588 10588 10589 10590 10591 10592 10594 10594 10595 10595 10594 10594 10594 10594 10593 10593 10592 10591 10591 10591 10590 10588 10586 10585 10585 10587 10587 10586 10587 10588 10587 10587 10590 10590 10581 10570 10565 10564 10565 10563 10562 10561 10559 10558 10556 10553 10547 10541 10540 10541 10540 10536 10532 10529 10527 10525 10522 10520 10517 10514 10511 10508 10505 10501 10497 10493 10488 10484 10481 10480 10478 10475 10473 10471 10468 10465 10463 10461 10459 10458 10455 10451 10449 10451 10451
10577 10578 10579 10579 10580 10581 10582 10583 10584 10585 10585 10585 10585 10585 10584 10584 10583 10582 10582 10581 10581 10581 10580 10578 10574 10572 10573 10575 10575 10575 10575 10574 10573 10576 10582 10579 10569 10559 10556 10556 10555 10553 10551 10549 10547 10545 10545 10541 10534 10529 10529 10529 10527 10523 10519 10516 10515 10514 10511 10508 10505 10502 10499 10496 10493 10490 10486 10481 10477 10473 10471 10470 10468 10465 10463 10462 10460 10457 10455 10454 10452 10452 10449 10445 10442 10442 10443
10569 10569 10570 10571 10572 10572 10572 10573 10574 10575 10575 10576 10576 10575 10575 10574 10572 10571 10571 10571 10571 10571 10570 10568 10563 10560 10560 10562 10563 10563 10562 10559 10558 10564 10568 10564 10553 10546 10546 10546 10544 10541 10539 10536 10534 10534 10533 10528 10523 10520 10519 10516 10513 10510 10506 10504 10503 10503 10500 10496 10493 10490 10487 10484 10481 10478 10474 10471 10467 10464 10461 10460 10459 10456 10454 10453 10452 10450 10448 10446 10445 10444 10442 10440 10437 10436 10434
10561 10560 10560 10560 10561 10562 10562 10563 10563 10563 10564 10565 10565 10565 10564 10563 10561 10561 10560 10560 10560 10560 10559 10556 10551 10548 10546 10547 10548 10550 10550 10548 10546 10549 10551 10547 10539 10534 10534 10534 10532 10529 10526 10523 10522 10521 10519 10514 10512 10512 10510 10505 10501 10499 10495 10492 10492 10491 10488 10484 10481 10478 10475 10472 10469 10467 10464 10460 10457 10454 10452 10451 10450 10448 10446 10445 10444 10442 10440 10439 10438 10437 10435 10433 10431 10429 10427
10552 10551 10550 10550 10550 10550 10551 10552 10552 10552 10552 10553 10553 10553 10552 10551 10551 10551 10549 10548 10548 10547 10544 10541 10538 10534 10531 10531 10533 10535 10536 10536 10535 10534 10534 10532 10529 10525 10523 10521 10519 10516 10513 10510 10509 10508 10505 10502 10501 10501 10498 10493 10490 10489 10485 10481 10480 10479 10476 10472 10470 10467 10464 10461 10459 10456 10454 10451 10448 10446 10444 10443 10441 10439 10438 10437 10436 10434 10431 10430 10429 10428 10428 10426 10424 10422 10420
10542 10542 10541 10541 10540 10539 10539 10540 10541 10541 10540 10539 10539 10539 10540 10540 10541 10541 10539 10536 10534 10530 10526 10523 10521 10519 10517 10517 10518 10518 10519 10520 10520 10519 10518 10517 10515 10513 10511 10509 10505 10501 10498 10497 10496 10495 10493 10490 10489 10487 10484 10480 10479 10478 10475 10470 10468 10466 10464 10462 10459 10456 10454 10452 10449 10447 10446 10443 10440 10437 10436 10435 10434 10432 10431 10430 10429 10427 10425 10422 10420 10419 10419 10419 10417 10415 10414
10531 10530 10531 10531 10530 10529 10528 10528 10529 10529 10528 10525 10525 10526 10527 10528 10532 10532 10527 10520 10517 10513 10509 10506 10505 10504 10504 10504 10503 10503 10503 10503 10503 10502 10502 10500 10498 10497 10496 10493 10489 10486 10484 10484 10484 10483 10480 10477 10474 10473 10472 10469 10467 10465 10463 10460 10457 10455 10453 10451 10449 10446 10445 10443 10441 10439 10437 10435 10432 10429 10427 10427 10427 10425 10423 10422 10421 10420 10418 10417 10415 10413 10412 10412 10411 10410 10409
10518 10518 10519 10519 10518 10517 10517 10517 10516 10516 10514 10512 10513 10514 10515 10519 10524 10522 10511 10502 10499 10497 10493 10490 10491 10492 10492 10491 10491 10490 10489 10489 10488 10487 10486 10484 10483 10482 10480 10477 10474 10472 10471 10471 10471 10470 10467 10463 10461 10461 10460 10458 10455 10453 10451 10449 10446 10444 10443 10441 10439 10437 10436 10434 10434 10432 10429 10427 10425 10423 10421 10419 10419 10418 10416 10414 10413 10412 10411 10411 10409 10408 10406 10406 10405 10404 10404
10507 10506 10507 10507 10506 10505 10504 10503 10502 10501 10500 10498 10499 10500 10501 10505 10509 10506 10496 10488 10486 10483 10480 10479 10481 10481 10481 10480 10479 10478 10476 10476 10475 10474 10472 10471 10470 10468 10466 10464 10462 10460 10460 10460 10459 10457 10453 10452 10451 10451 10449 10446 10444 10442 10440 10438 10436 10434 10433 10432 10432 10431 10428 10426 10425 10424 10421 10419 10417 10417 10415 10413 10412 10411 10409 10407 10406 10405 10404 10404 10403 10402 10401 10400 10399 10399 10398
10497 10496 10495 10495 10494 10492 10490 10489 10488 10487 10485 10483 10483 10484 10485 10488 10489 10486 10482 10478 10475 10472 10471 10471 10472 10471 10470 10470 10469 10466 10465 10464 10463 10462 10460 10459 10458 10457 10455 10453 10452 10451 10451 10450 10447 10445 10443 10442 10441 10440 10438 10436 10434 10432 10429 10427 10426 10425 10425 10424 10424 10424 10423 10420 10417 10416 10414 10411 10410 10409 10409 10407 10405 10403 10402 10402 10400 10399 10398 10397 10397 10397 10396 10395 10394 10394 10393
10487 10485 10483 10483 10481 10479 10478 10476 10475 10474 10472 10471 10470 10470 10471 10472 10472 10471 10469 10466 10464 10463 10463 10463 10463 10462 10462 10461 10459 10457 10455 10453 10452 10451 10451 10450 10449 10448 10446 10444 10443 10443 10443 10441 10437 10434 10433 10433 10432 10430 10428 10426 10425 10423 10421 10419 10418 10418 10418 10417 10416 10416 10415 10413 10410 10408 10406 10405 10404 10403 10402 10401 10399 10398 10397 10396 10395 10395 10394 10393 10393 10392 10391 10390 10390 10389 10388
10476 10474 10473 10472 10470 10468 10466 10465 10463 10462 10461 10460 10459 10458 10459 10460 10461 10461 10459 10457 10456 10456 10456 10455 10455 10455 10454 10452 10450 10448 10446 10444 10443 10442 10443 10443 10442 10440 10437 10436 10435 10435 10434 10432 10429 10427 10425 10425 10423 10421 10419 10418 10417 10415 10414 10412 10411 10411 10411 10411 10409 10408 10407 10405 10403 10401 10400 10399 10398 10397 10396 10394 10393 10393 10392 10391 10390 10390 10389 10388 10388 10387 10386 10386 10385 10384 10384
10467 10466 10464 10462 10461 10459 10457 10456 10454 10454 10453 10452 10451 10450 10450 10451 10452 10453 10453 10452 10451 10451 10449 10448 10448 10447 10446 10443 10441 10439 10438 10436 10435 10435 10435 10436 10435 10432 10429 10428 10428 10428 10426 10424 10422 10420 10419 10418 10416 10414 10412 10411 10410 10408 10407 10406 10405 10405 10405 10404 10403 10402 10400 10398 10396 10395 10394 10393 10392 10391 10390 10389 10388 10387 10386 10386 10385 10384 10384 10383 10383 10383 10382 10381 10380 10380 10379
10460 10459 10457 10455 10454 10452 10451 10450 10449 10448 10448 10447 10447 10446 10446 10446 10446 10446 10447 10447 10446 10445 10444 10443 10441 10440 10438 10436 10434 10433 10431 10430 10429 10429 10428 10428 10427 10424 10422 10421 10421 10420 10419 10416 10414 10413 10412 10412 10410 10407 10406 10405 10404 10403 10402 10400 10398 10398 10398 10398 10398 10397 10394 10392 10390 10390 10389 10388 10387 10385 10385 10384 10383 10382 10381 10380 10380 10380 10379 10379 10378 10378 10377 10377 10376 10376 10375
10454 10454 10452 10450 10449 10447 10446 10445 10444 10444 10443 10443 10443 10443 10443 10443 10442 10441 10441 10441 10440 10439 10438 10436 10435 10434 10432 10430 10429 10428 10427 10426 10424 10423 10422 10422 10420 10418 10415 10413 10413 10413 10412 10410 10407 10404 10404 10405 10404 10402 10400 10399 10399 10398 10396 10395 10393 10392 10392 10392 10392 10391 10389 10387 10385 10384 10384 10383 10382 10380 10379 10378 10378 10377 10376 10375 10375 10374 10374 10374 10373 10373 10372 10372 10372 10371 10371
10450 10449 10448 10447 10445 10444 10443 10442 10441 10440 10440 10439 10440 10439 10439 10439 10438 10437 10436 10436 10435 10434 10433 10431 10431 10430 10429 10427 10425 10423 10422 10420 10419 10417 10416 10415 10415 10412 10409 10406 10406 10407 10407 10405 10402 10399 10397 10397 10396 10395 10394 10394 10394 10393 10392 10390 10388 10387 10386 10386 10386 10385 10384 10381 10380 10379 10378 10378 10377 10375 10374 10373 10372 10371 10371 10370 10369 10369 10369 10368 10368 10367 10367 10367 10366 10366 10365
10446 10445 10444 10443 10442 10441 10440 10439 10439 10438 10437 10436 10436 10435 10434 10434 10433 10432 10432 10431 10430 10430 10430 10429 10428 10427 10425 10423 10420 10417 10415 10413 10412 10411 10409 10408 10409 10408 10405 10401 10399 10399 10400 10400 10398 10394 10391 10390 10390 10389 10388 10388 10389 10389 10388 10386 10384 10382 10381 10380 10380 10379 10378 10376 10375 10373 10373 10372 10371 10370 10369 10368 10366 10366 10365 10364 10364 10364 10363 10363 10362 10362 10361 10361 10360 10360 10359